Regional Weather Roundup
Issued by NWS Albany, NY

Home | Current Version | Previous Version | Graphics & Text | Print | Product List | Glossary Off
Versions: 1 2 3 4 5 6 7 8 9 10 11 12 13 14 15 16 17 18 19 20 21 22 23 24 25 26 27

000
ASUS41 KALY 180510
RWRALY

NEW YORK STATE HOURLY WEATHER ROUNDUP
NATIONAL WEATHER SERVICE ALBANY NY
100 AM EDT FRI APR 18 2014

NOTE: "FAIR" INDICATES FEW OR NO CLOUDS BELOW 12,000 FEET WITH NO
SIGNIFICANT WEATHER AND/OR NO OBSTRUCTIONS TO VISIBILITY.

NYZ032-033-038>043-046>054-057>066-NYZ062>081-180600-
EAST


CITY           SKY/WX    TMP DP  RH WIND       PRES   REMARKS
ALBANY         CLEAR     38  20  48 SE9       30.60F WCI  31
GLENS FALLS    CLEAR    N/A N/A N/A CALM      30.59S
POUGHKEEPSIE   CLEAR     33  27  78 CALM      30.60F
NEWBURGH       CLEAR     37  28  70 VRB6      30.61S WCI  33
MONTGOMERY     CLEAR     31  24  75 CALM      30.59F
WHITE PLAINS   CLEAR     36  27  69 E3        30.59R
ISLIP          CLEAR     35  27  72 NE5       30.58S WCI  31
NEW YORK CITY  MOCLDY    38  26  62 E6        30.61S WCI  33
CENTRAL PARK   CLEAR     38  27  64 E8        30.63S WCI  32
$$

NYZ005>009-017-018-044>046-055-056-180600-
CENTRAL


CITY           SKY/WX    TMP DP  RH WIND       PRES   REMARKS
FULTON         CLEAR     43  22  43 SE7       30.45F
SYRACUSE       PTCLDY    41  24  51 SE10      30.48S
ROME           CLEAR     35  21  56 SE6       30.53S WCI  30
ELMIRA         CLEAR     42  26  53 S7        30.49R
BINGHAMTON     CLEAR     36  25  64 S8        30.49S WCI  30
MONTICELLO     CLEAR     30  25  80 SE5       30.56S WCI  25
$$

NYZ026>034-041>043-180600-
NORTH


CITY           SKY/WX    TMP DP  RH WIND       PRES   REMARKS
WATERTOWN      CLEAR     46  19  34 S10       30.44S
FORT DRUM      NOT AVBL
MASSENA        MOCLDY    39  20  46 S5        30.48F
SARANAC LAKE   PTCLDY    23  19  85 CALM      30.46F
PLATTSBURGH    CLEAR     37  23  56 S12       30.54F WCI  29
$$

NYZ001>004-010>016-019>021-180600-
WEST


CITY           SKY/WX    TMP DP  RH WIND       PRES   REMARKS
NIAGARA FALLS  CLOUDY    48  26  42 S13       30.34S
BUFFALO        MOCLDY    50  26  39 S14       30.36R
DUNKIRK        PTCLDY    50  25  37 S21G35    30.35S
JAMESTOWN      PTCLDY    45  25  45 S10G18    30.39F
WELLSVILLE     CLEAR     40  25  55 S8        30.44R WCI  34
ROCHESTER      PTCLDY    48  27  44 S12       30.40S
PENN YAN       CLEAR     43  27  53 S8        30.44S
$$

             KEY
       WCI = WIND CHILL INDEX
       VSB = VISIBILITY
       HX  = HEAT INDEX
$$



USA.gov is the U.S. government's official web portal to all federal, state and local government web resources and services.